Location: Unspecified
(0.0000°N, 0.0000°E)
Time: 21:48:50
(UTC+00:00)

Transit 4A - Visible Passes

Search period start: 01 October 2020 00:00
Search period end: 11 October 2020 00:00
Orbit: 862 x 982 km, 66.8° (Epoch: 01 October)

Date Brightness Start Highest point End Pass type
(mag) Time Alt. Az. Time Alt. Az. Time Alt. Az.
01 Oct 7.9 19:44:52 10° SSW 19:50:07 72° SSW 19:50:07 72° SSW visible
02 Oct 9.5 18:11:43 10° SE 18:13:59 12° ESE 18:16:17 10° E visible
02 Oct 8.5 19:54:21 10° SW 20:00:02 50° WNW 20:01:03 45° NW visible
03 Oct 8.9 18:18:48 10° SSE 18:23:16 22° ESE 18:27:48 10° ENE visible
03 Oct 9.5 20:04:18 10° SW 20:09:19 29° WNW 20:12:13 20° NNW visible
04 Oct 8.3 18:27:06 10° S 18:32:32 38° ESE 18:38:05 10° NE visible
04 Oct 10.3 20:15:01 10° WSW 20:18:38 17° WNW 20:22:20 10° NNW visible
05 Oct 7.8 18:35:55 10° SSW 18:41:47 67° ESE 18:47:48 10° NNE visible
06 Oct 8.1 18:45:10 10° SSW 18:51:02 71° WNW 18:57:05 10° NNE visible
07 Oct 9.1 18:54:48 10° SW 19:00:19 41° WNW 19:05:59 10° N visible
08 Oct 10.1 19:04:57 10° WSW 19:09:37 24° WNW 19:14:22 10° NNW visible
09 Oct 10.6 19:16:10 10° W 19:18:56 13° WNW 19:21:45 10° NW visible
10 Oct 10.6 04:40:37 10° NNE 04:44:46 18° ENE 04:48:51 10° ESE visible
